Regional Weather Roundup
Issued by NWS Mobile, AL

Home | Current Version | Previous Version | Text Only | Print | Product List | Glossary On
Versions: 1 2 3 4 5 6 7 8 9 10 11 12 13 14 15 16 17 18 19 20 21 22 23 24 25 26 27 28 29 30 31 32 33 34 35 36 37 38 39 40 41 42 43 44 45 46 47 48 49 50
000
ASUS44 KMOB 131312
RWRMOB
REGIONAL WEATHER ROUNDUP
NATIONAL WEATHER SERVICE MOBILE AL
700 AM CST SAT FEB 13 2016

NOTE: "FAIR" INDICATES FEW OR NO CLOUDS BELOW 12,000 FEET WITH NO
      SIGNIFICANT WEATHER AND/OR OBSTRUCTIONS TO VISIBILITY.

  * THESE STATIONS ARE PART OF THE UNIVERSITY OF SOUTH ALABAMA
    MESONET AND ARE NOT UNDER NWS OR FAA QUALITY CONTROL.

ALZ061>064-131400-
COASTAL ALABAMA

CITY           SKY/WX    TMP DP  RH WIND       PRES   REMARKS
MOBILE REG APT PTCLDY    43  28  55 N10       30.39R
BROOKLEY FIELD CLEAR     46  30  53 N10       30.40R
USA CAMPUS*    NOT AVBL
DOG RIVER*     NOT AVBL


CITY           SKY/WX    TMP DP  RH WIND       PRES   REMARKS
MOUNT VERNON*  NOT AVBL
SARALAND*      NOT AVBL
BAY MINETTE*   NOT AVBL
LOXLEY*        NOT AVBL
ROBERTSDALE*   NOT AVBL
FAIRHOPE*      NOT AVBL
ELBERTA*       NOT AVBL
FOLEY*         NOT AVBL
GRAND BAY*     NOT AVBL
DAUPHIN ISLND* NOT AVBL
BON SCOUR NWR* NOT AVBL
GULF SHORES    CLEAR     43  29  56 NE6       30.37S

$$

ALZ051>060-131400-
INTERIOR SOUTHWEST AND SOUTH CENTRAL ALABAMA

CITY           SKY/WX    TMP DP  RH WIND       PRES   REMARKS
GREENVILLE     CLEAR     37  25  61 N5        30.38R
EVERGREEN      CLEAR     39  25  57 N7        30.40R
CASTLEBERRY*   NOT AVBL
ATMORE*        NOT AVBL
DIXIE*         NOT AVBL
ANDALUSIA/OPP  CLEAR     44  25  47 NE10      30.36
ANDALUSIA*     NOT AVBL
FLORALA APT    NOT AVBL
FLORALA*       NOT AVBL

$$

FLZ001>006-131400-
WESTERN FLORIDA PANHANDLE

CITY           SKY/WX    TMP DP  RH WIND       PRES   REMARKS
PENSACOLA      CLEAR     45  27  49 N10G21    30.37R
NAS PENSACOLA  CLEAR     46  26  45 N13       30.37R
MILTON         CLEAR     42  26  53 N5        30.37R
WHTNG S FIELD  CLEAR     45  26  47 N14G20    30.37R


CITY           SKY/WX    TMP DP  RH WIND       PRES   REMARKS
WALNUT HILL*   NOT AVBL
JAY*           NOT AVBL
DUKE FIELD     CLEAR     42  28  57 N8        30.34R
CRESTVIEW      CLEAR     42  28  57 N7        30.37R
VALPARAISO     CLEAR     45  27  50 N12       30.34R
DESTIN         CLEAR     48  29  47 N13G23    30.35R

$$

MSZ076-079-131400-
INTERIOR SOUTHEAST MISSISSIPPI

CITY           SKY/WX    TMP DP  RH WIND       PRES   REMARKS
LEAKESVILLE*   NOT AVBL
AGRICOLA*      NOT AVBL

$$

MARINE OBSERVATIONS

STATION/POSITION TIME  TEMP    WIND        PRES    WAVE
                       AIR SEA DIR/SP/G            HT/PER
                 (UTC) (F)     (DEG/KT/KT) (MB)    (FT/S)
PASCAGOULA       1200   47     360/  8/ 12 1028.1R
PETIT BOIS ISLND 1200   49      30/ 20/ 24 1028.5R
GRAND BAY        1145   46      20/  8     1029.0R
KATRINA CUT      1200   49      30/ 16       N/A
CEDAR POINT      1200   49      20/ 14     1027.4R
E DAUPHIN ISLAND 1200   49      20/ 23/ 26 1028.0R
MIDDLE BAY LIGHT 1200           10/ 22     1027.4R
USCG MOBILE BAY  1200   47 55   10/  6/ 11 1028.8R
STATE DOCKS      1200   47 53              1028.1R
MEAHER PARK      1200   45      20/  6     1028.4R
WEEKS BAY        1100   47                   N/A
FORT MORGAN      1200   49      40/ 25/ 28 1027.4R
12 S ORANGE BCH  1150   53 66   20/ 25/ 29 1026.1R   4/ 4
PENSACOLA BAY    1200   49 53   10/  8/ 12 1027.8R

$$

SELECTED LOCATIONS ACROSS THE REGION

CITY           SKY/WX    TMP DP  RH WIND       PRES   REMARKS
NEW ORLEANS    PTCLDY    51  30  44 NE16      30.40R
GULFPORT       CLEAR     45  29  53 NE7       30.39R
PASCAGOULA AP  CLEAR     44  30  57 NE8       30.39R
PASCAGOULA*    NOT AVBL
HATTIESBURG    CLEAR     41  28  60 NE7       30.43R
LAUREL         CLEAR     39  25  56 NE8       30.42R
MERIDIAN       CLEAR     35  25  66 N13       30.46R WCI  26
JACKSON        CLEAR     38  27  64 NE10      30.45R
MONTGOMERY     CLEAR     37  18  46 NW7       30.41R
TROY           CLEAR     39  23  52 N3        30.38R
KINSTON*       NOT AVBL
GENEVA*        NOT AVBL
ASHFORD*       NOT AVBL
DOTHAN         CLEAR     40  25  55 N9        30.38R
PANAMA CITY    CLEAR     46  31  55 N9        30.33R

$$




USA.gov is the U.S. government's official web portal to all federal, state and local government web resources and services.